Location: Kumla
(59.1265°N, 15.1401°E)
Time: 16:25:55
(UTC+01:00)

A-11 Canister half - Pass Details

Date: 09 December 2023
Orbit: 1512 x 1687 km, 47.2° (Epoch: 25 February)

Event Time Altitude Azimuth Distance (km) Brightness Sun altitude
Rises 03:29:01 0° 267° (W) 4,797 - -37.4°
Reaches altitude 10° 03:32:22 10° 260° (W) 3,836 - -37.0°
Maximum altitude 03:41:00 37° 198° (SSW) 2,370 - -36.0°
Exits shadow 03:42:56 34° 176° (S) 2,476 9.9 -35.7°
Drops below altitude 10° 03:49:51 10° 136° (SE) 3,933 11.4 -34.9°
Sets 03:53:21 0° 129° (SE) 4,931 12.1 -34.4°
